This is the latest recevied weather packets stored in our database for station/object K7KAR-2. If no packets are shown the sender has not sent any weather packets the latest 10 day(s).
| Time | Temp. | Humidity | Pressure | Rain* | Wind** | Luminosity | Snow |
|---|---|---|---|---|---|---|---|
| 1778251425 | 12.78° C | 46% | 1013.8 hPa | 0 mm | - | 529 W/m² | - |
| 1778251122 | 11.67° C | 46% | 1014 hPa | 0 mm | - | 507 W/m² | - |
| 1778250819 | 11.67° C | 47% | 1014 hPa | 0 mm | - | 479 W/m² | - |
| 1778250516 | 11.11° C | 48% | 1014.1 hPa | 0 mm | - | 435 W/m² | - |
| 1778250213 | 11.11° C | 50% | 1014 hPa | 0 mm | - | 356 W/m² | - |
| 1778249909 | 10.56° C | 50% | 1014.1 hPa | 0 mm | - | 356 W/m² | - |
| 1778249606 | 10.56° C | 51% | 1014.4 hPa | 0 mm | - | 360 W/m² | - |
| 1778249304 | 10° C | 52% | 1014.1 hPa | 0 mm | - | 356 W/m² | - |
| 1778249000 | 10° C | 53% | 1014.5 hPa | 0 mm | - | 347 W/m² | - |
| 1778248696 | 9.44° C | 54% | 1014.3 hPa | 0 mm | - | 336 W/m² | - |
| 1778248393 | 8.89° C | 55% | 1014.3 hPa | 0 mm | - | 281 W/m² | - |
| 1778248089 | 8.89° C | 56% | 1014.3 hPa | 0 mm | - | 275 W/m² | - |
| 1778247786 | 8.89° C | 57% | 1014.1 hPa | 0 mm | - | 277 W/m² | - |
| 1778247482 | 8.33° C | 57% | 1014.3 hPa | 0 mm | - | 250 W/m² | - |
| 1778247180 | 8.33° C | 59% | 1013.9 hPa | 0 mm | - | 256 W/m² | - |
| 1778246877 | 8.33° C | 59% | 1014.1 hPa | 0 mm | - | 223 W/m² | - |
| 1778246575 | 7.78° C | 60% | 1014.1 hPa | 0 mm | - | 196 W/m² | - |
| 1778246270 | 7.78° C | 60% | 1014 hPa | 0 mm | - | 183 W/m² | - |
| 1778245967 | 7.78° C | 61% | 1014.4 hPa | 0 mm | - | 182 W/m² | - |
| 1778245663 | 7.22° C | 61% | 1014.3 hPa | 0 mm | - | 174 W/m² | - |
| 1778245361 | 7.22° C | 62% | 1014.1 hPa | 0 mm | - | 149 W/m² | - |
| 1778245056 | 6.67° C | 64% | 1014 hPa | 0 mm | - | 134 W/m² | - |
| 1778244753 | 6.67° C | 64% | 1014 hPa | 0 mm | - | 117 W/m² | - |
| 1778244451 | 6.67° C | 65% | 1013.9 hPa | 0 mm | - | 92 W/m² | - |
| 1778244148 | 6.11° C | 65% | 1013.8 hPa | 0 mm | - | 52 W/m² | - |
* Rain latest hour (hover to see other rain measurements)
** Current wind speed in m/s (hover to see current wind gust speed)